When you browse on this site, cookies collect data to enhance your experience and personalize the content and advertising you see.
Visit our Privacy Policy to learn more. By continuing to use the site, you agree to this use of cookies and data.
  • In United Kingdom
  • List of Countries
  • For 7 days
  • Water Temperature
  • Satellite Maps
  • Weather Map
  • Weather Widgets
  • user-avatar
    Login

    Hourly Weather Vivsyanyky

    Today, 20 June, Thursday

    Time Temperature Precipitation Wind Pressure Humidity
    00:00 +20°C° 0 mm 2 mps 746 mmHg 86%
    01:00 +20°C° 0 mm 2 mps 746 mmHg 88%
    02:00 +20°C° 0 mm 2 mps 746 mmHg 90%
    03:00 +20°C° 0 mm 2 mps 746 mmHg 91%
    04:00 +20°C° 0 mm 2 mps 746 mmHg 91%
    05:00 +20°C° 0 mm 2 mps 746 mmHg 92%
    06:00 +21°C° 0 mm 3 mps 746 mmHg 86%
    07:00 +24°C° 0 mm 3 mps 746 mmHg 80%
    08:00 +26°C° 0 mm 3 mps 746 mmHg 74%
    09:00 +27°C° 0 mm 3 mps 746 mmHg 68%
    10:00 +28°C° 0 mm 3 mps 746 mmHg 63%
    11:00 +29°C° 0 mm 3 mps 746 mmHg 58%
    12:00 +29°C° 0 mm 3 mps 746 mmHg 56%
    13:00 +30°C° 0 mm 3 mps 746 mmHg 53%
    14:00 +30°C° 0 mm 3 mps 746 mmHg 51%
    15:00 +30°C° 0 mm 3 mps 746 mmHg 52%
    16:00 +30°C° 0 mm 3 mps 745 mmHg 54%
    17:00 +30°C° 0 mm 3 mps 745 mmHg 55%
    18:00 +28°C° 0 mm 3 mps 745 mmHg 62%
    19:00 +26°C° 0 mm 3 mps 746 mmHg 69%
    20:00 +25°C° 0 mm 3 mps 746 mmHg 76%
    21:00 +24°C° 0 mm 3 mps 746 mmHg 77%
    22:00 +22°C° 0 mm 3 mps 746 mmHg 78%
    23:00 +22°C° 0 mm 3 mps 746 mmHg 80%

    Tomorrow, 21 June, Friday

    Time Temperature Precipitation Wind Pressure Humidity
    00:00 +21°C° 0 mm 3 mps 746 mmHg 79%
    01:00 +21°C° 0 mm 3 mps 746 mmHg 79%
    02:00 +20°C° 0 mm 3 mps 746 mmHg 78%
    03:00 +20°C° 0 mm 3 mps 747 mmHg 78%
    04:00 +20°C° 0 mm 3 mps 747 mmHg 78%
    05:00 +20°C° 0 mm 2 mps 747 mmHg 78%
    06:00 +22°C° 0 mm 3 mps 747 mmHg 74%
    07:00 +25°C° 0 mm 3 mps 747 mmHg 69%
    08:00 +26°C° 0 mm 3 mps 748 mmHg 64%
    09:00 +28°C° 0 mm 3 mps 748 mmHg 60%
    10:00 +29°C° 0 mm 3 mps 748 mmHg 56%
    11:00 +30°C° 0 mm 4 mps 748 mmHg 52%
    12:00 +31°C° 0 mm 3 mps 747 mmHg 49%
    13:00 +31°C° 0 mm 3 mps 747 mmHg 46%
    14:00 +31°C° 0 mm 3 mps 747 mmHg 43%
    15:00 +31°C° 0 mm 3 mps 747 mmHg 43%
    16:00 +31°C° 0 mm 2 mps 747 mmHg 43%
    17:00 +31°C° 0 mm 2 mps 746 mmHg 43%
    18:00 +29°C° 0 mm 2 mps 746 mmHg 48%
    19:00 +27°C° 0 mm 2 mps 746 mmHg 54%
    20:00 +25°C° 0 mm 3 mps 746 mmHg 59%
    21:00 +24°C° 0 mm 3 mps 747 mmHg 60%
    22:00 +22°C° 0 mm 3 mps 747 mmHg 61%
    23:00 +22°C° 0 mm 3 mps 747 mmHg 62%

    Day after tomorrow, 22 June, Saturday

    Time Temperature Precipitation Wind Pressure Humidity
    00:00 +21°C° 0 mm 3 mps 747 mmHg 63%
    01:00 +21°C° 0 mm 2 mps 747 mmHg 65%
    02:00 +21°C° 0 mm 2 mps 747 mmHg 66%
    03:00 +21°C° 0 mm 2 mps 747 mmHg 68%
    04:00 +21°C° 0 mm 2 mps 747 mmHg 71%
    05:00 +22°C° 0 mm 1 mps 747 mmHg 73%
    06:00 +24°C° 0 mm 1 mps 747 mmHg 69%
    07:00 +26°C° 0 mm 2 mps 748 mmHg 65%
    08:00 +27°C° 0 mm 2 mps 748 mmHg 61%
    09:00 +29°C° 0 mm 2 mps 748 mmHg 57%
    10:00 +30°C° 0 mm 2 mps 748 mmHg 53%
    11:00 +31°C° 0 mm 2 mps 748 mmHg 49%
    12:00 +31°C° 0 mm 2 mps 748 mmHg 49%
    13:00 +31°C° 0 mm 2 mps 748 mmHg 48%
    14:00 +31°C° 0 mm 2 mps 747 mmHg 47%
    15:00 +30°C° 0 mm 2 mps 747 mmHg 51%
    16:00 +29°C° 0 mm 2 mps 747 mmHg 55%
    17:00 +27°C° 0 mm 2 mps 747 mmHg 58%
    18:00 +27°C° 0 mm 2 mps 747 mmHg 58%
    19:00 +27°C° 0 mm 2 mps 747 mmHg 58%
    20:00 +26°C° 0 mm 1 mps 747 mmHg 58%
    21:00 +25°C° 0 mm 2 mps 747 mmHg 60%
    22:00 +25°C° 0 mm 2 mps 747 mmHg 63%
    23:00 +24°C° 0 mm 2 mps 747 mmHg 65%

    23 June, Sunday

    Time Temperature Precipitation Wind Pressure Humidity
    00:00 +23°C° 0 mm 2 mps 747 mmHg 64%
    01:00 +21°C° 0 mm 2 mps 747 mmHg 63%
    02:00 +21°C° 0 mm 2 mps 747 mmHg 61%
    03:00 +21°C° 0 mm 2 mps 747 mmHg 63%
    04:00 +21°C° 0 mm 2 mps 747 mmHg 66%
    05:00 +20°C° 0 mm 2 mps 747 mmHg 68%
    06:00 +23°C° 0 mm 2 mps 747 mmHg 65%
    07:00 +25°C° 0 mm 2 mps 747 mmHg 62%
    08:00 +27°C° 0 mm 2 mps 747 mmHg 59%
    09:00 +28°C° 0 mm 3 mps 748 mmHg 54%
    10:00 +30°C° 0 mm 3 mps 748 mmHg 49%
    11:00 +31°C° 0 mm 3 mps 748 mmHg 44%
    12:00 +31°C° 0 mm 3 mps 747 mmHg 44%
    13:00 +33°C° 0 mm 4 mps 747 mmHg 44%
    14:00 +33°C° 0 mm 4 mps 747 mmHg 43%
    15:00 +32°C° 0 mm 4 mps 747 mmHg 47%
    16:00 +32°C° 0 mm 4 mps 746 mmHg 50%
    17:00 +30°C° 0 mm 4 mps 746 mmHg 54%
    18:00 +28°C° 0 mm 4 mps 746 mmHg 59%
    19:00 +27°C° 0 mm 4 mps 746 mmHg 65%
    20:00 +25°C° 0 mm 3 mps 746 mmHg 71%
    21:00 +24°C° 0 mm 3 mps 746 mmHg 73%
    22:00 +22°C° 0 mm 3 mps 747 mmHg 74%
    23:00 +21°C° 0 mm 4 mps 747 mmHg 75%

    24 June, Monday

    Time Temperature Precipitation Wind Pressure Humidity
    00:00 +21°C° 0.1 mm 4 mps 747 mmHg 78%
    01:00 +21°C° 0.1 mm 4 mps 747 mmHg 81%
    02:00 +20°C° 0.1 mm 4 mps 747 mmHg 84%
    03:00 +20°C° 0.2 mm 4 mps 747 mmHg 84%
    04:00 +20°C° 0.2 mm 4 mps 747 mmHg 83%
    05:00 +20°C° 0.2 mm 4 mps 747 mmHg 82%
    06:00 +21°C° 0.4 mm 4 mps 747 mmHg 82%
    07:00 +21°C° 0.4 mm 3 mps 747 mmHg 81%
    08:00 +21°C° 0.4 mm 3 mps 747 mmHg 81%
    09:00 +23°C° 0 mm 4 mps 747 mmHg 76%
    10:00 +26°C° 0 mm 4 mps 748 mmHg 71%
    11:00 +28°C° 0 mm 4 mps 748 mmHg 66%
    12:00 +29°C° 0 mm 4 mps 748 mmHg 62%
    13:00 +30°C° 0 mm 4 mps 747 mmHg 57%
    14:00 +32°C° 0 mm 4 mps 747 mmHg 53%
    15:00 +32°C° 0.9 mm 4 mps 747 mmHg 56%
    16:00 +30°C° 0.9 mm 4 mps 747 mmHg 59%
    17:00 +30°C° 0.9 mm 4 mps 747 mmHg 63%
    18:00 +28°C° 0.2 mm 4 mps 747 mmHg 68%
    19:00 +27°C° 0.2 mm 3 mps 747 mmHg 74%
    20:00 +25°C° 0.2 mm 3 mps 747 mmHg 80%
    21:00 +24°C° 0 mm 3 mps 747 mmHg 82%
    22:00 +22°C° 0 mm 3 mps 748 mmHg 84%
    23:00 +22°C° 0 mm 3 mps 748 mmHg 86%

    25 June, Tuesday

    Time Temperature Precipitation Wind Pressure Humidity
    00:00 +21°C° 0.1 mm 3 mps 748 mmHg 88%
    01:00 +21°C° 0.1 mm 3 mps 748 mmHg 89%
    02:00 +20°C° 0.1 mm 3 mps 748 mmHg 91%
    03:00 +20°C° 0 mm 3 mps 748 mmHg 91%
    04:00 +20°C° 0 mm 4 mps 748 mmHg 91%
    05:00 +20°C° 0 mm 4 mps 748 mmHg 91%
    06:00 +21°C° 0 mm 4 mps 748 mmHg 88%
    07:00 +22°C° 0 mm 5 mps 748 mmHg 85%
    08:00 +25°C° 0 mm 5 mps 749 mmHg 81%
    09:00 +25°C° 0.1 mm 5 mps 749 mmHg 79%
    10:00 +26°C° 0.1 mm 6 mps 749 mmHg 76%
    11:00 +27°C° 0.1 mm 6 mps 749 mmHg 73%
    12:00 +27°C° 0.2 mm 6 mps 749 mmHg 71%
    13:00 +28°C° 0.2 mm 6 mps 749 mmHg 69%
    14:00 +28°C° 0.2 mm 6 mps 749 mmHg 66%
    15:00 +28°C° 0.1 mm 6 mps 749 mmHg 67%
    16:00 +28°C° 0.1 mm 6 mps 749 mmHg 67%
    17:00 +27°C° 0.1 mm 7 mps 749 mmHg 68%
    18:00 +26°C° 0 mm 6 mps 749 mmHg 70%
    19:00 +23°C° 0 mm 5 mps 749 mmHg 72%
    20:00 +22°C° 0 mm 5 mps 749 mmHg 74%
    21:00 +21°C° 0 mm 5 mps 749 mmHg 75%
    22:00 +20°C° 0 mm 5 mps 750 mmHg 75%
    23:00 +19°C° 0 mm 5 mps 750 mmHg 75%
    Show more